{"data":{"norad_id":63312,"intl_designator":"2025-057F","name":"STARLINK-11650 [DTC]","alt_names":[],"object_type":"PAYLOAD","status":"ACTIVE","operator":null,"country":"US","launch_date":"2025-03-18","launch_site_code":"AFETR","launch_vehicle":null,"mission":null,"orbit_class":"UNKNOWN","rcs_meters":null,"size_class":null,"mass_kg":null,"dimensions":null,"purposes":["comms"],"wikipedia_slug":null,"has_3d_model":false,"image_url":null,"decayed_at":null,"tle_current":{"epoch":"2026-05-25T02:32:57.013152Z","epoch_age_seconds":56138,"freshness":"FRESH","line1":"1 63312U 25057F   26145.10621543  .00229890  00000+0  17443-2 0  9994","line2":"2 63312  43.0021 164.1222 0003462 277.6960  82.3514 15.70859498 69225","mean_motion":15.70859498,"eccentricity":0.0003462,"inclination_deg":43.0021,"raan_deg":164.1222,"arg_perigee_deg":277.696,"mean_anomaly_deg":82.3514,"bstar":0.0017443,"rev_number":6922,"period_min":91.669560634378,"perigee_km":354.10782288533,"apogee_km":358.77084353845,"semimajor_km":6734.5763332119,"source":"CELESTRAK","updated_at":"2026-05-25T13:38:19.956496Z"}}}